Terug naar catalogus

STARLINK-31409

ActiefCommunicatieVLEO
NORAD 59299·PAYLOAD·🇺🇸 United States

Gelanceerd Mar 24, 2024 vanaf Cape Canaveral Space Force Station

Loading…

Volgende Passages (komende 24 uur)

TLE

VersSource: CelesTrak SupGP

Epoch: Sep 15, 2026, 02:21 UTC

1 59299C 24056D   26258.09840278 -.00026840  00000+0 -97227-3 0  2581
2 59299  43.0013 234.1342 0001129 257.8902  30.3135 15.27588244    14

Volg STARLINK-31409 in realtime met AllMySat

Download on the App Store